Regional Weather Roundup
Issued by NWS

Home | Current Version | Previous Version | Graphics & Text | Print | Product List | Glossary On
Versions: 1 2 3 4 5 6 7 8 9 10 11 12 13 14 15 16 17 18 19 20 21 22 23 24 25 26 27 28
000
ASUS45 KCYS 190310
RWRWY

WYOMING REGIONAL WEATHER ROUNDUP
NATIONAL WEATHER SERVICE CHEYENNE WY
800 PM MST THU JAN 18 2018

NOTE:  "FAIR" INDICATES FEW OR NO CLOUDS BELOW 12,000 FEET
WITH NO SIGNIFICANT WEATHER AND/OR OBSTRUCTIONS TO VISIBILITY.

WYZ001-190400-
YELLOWSTONE NATIONAL PARK

CITY           SKY/WX    TMP DP  RH WIND       PRES   REMARKS
LK YELLOWSTONE   N/A     30  26  85 W3        29.91F
W YELLOWSTONE  NOT AVBL

$$
WYZ002>013-054>058-071-098>099-190400-
NORTHERN WYOMING

CITY           SKY/WX    TMP DP  RH WIND       PRES   REMARKS
JACKSON        CLOUDY    36  29  75 SW10      29.92F WCI  28
CODY           FAIR      32  26  78 SE8       29.76F WCI  25
GREYBULL       MOCLDY    21  16  81 CALM      29.80F
WORLAND        FAIR      26  21  81 S3        29.80F
SHERIDAN       FAIR      50  29  44 N3        29.70F
BUFFALO        FAIR      48  25  40 SW9       29.74F
GILLETTE       FAIR      46  31  55 SW25G32   29.73F
HULETT         FAIR      45  30  57 S14G20    29.78S
NEWCASTLE      FAIR      37  27  65 NE6       29.84S WCI  33

$$
WYZ014>020-022>026-101>103-190400-
CENTRAL WYOMING

CITY           SKY/WX    TMP DP  RH WIND       PRES   REMARKS
BIG PINEY      FAIR      22  18  85 CALM      30.01F
PINEDALE       FAIR      19  16  86 CALM      30.03F
DUBOIS         FAIR      36  25  64 W10       29.90F WCI  28
LANDER         FAIR      29  21  72 CALM      29.88F
RIVERTON       FAIR      26  17  68 NW5       29.89F WCI  20
CASPER         FAIR      45  20  36 SW32G46   29.88F
DOUGLAS        FAIR      50  26  39 W13       29.85F

$$
WYZ021-027>030-104>119-190400-
SOUTHERN WYOMING

CITY           SKY/WX    TMP DP  RH WIND       PRES   REMARKS
EVANSTON       FAIR      39  24  55 S8        30.01F WCI  33
FORT BRIDGER   FAIR      41  24  51 W9        30.03F
ROCK SPRINGS   FAIR      36  18  48 SE10      30.00F WCI  28
DIXON            N/A     34  19  52 E3        30.12F
RAWLINS        MOCLDY    42  16  34 SW23G30   30.03F
SARATOGA       FAIR      34  14  44 S5        30.08S WCI  30
LARAMIE        FAIR      39  13  34 SW22      30.04S WCI  29
CHEYENNE       FAIR      50  16  25 W16       29.97S
TORRINGTON     FAIR      49  28  44 W12       29.86F

$$




USA.gov is the U.S. government's official web portal to all federal, state and local government web resources and services.